Location: Augustenthal
(51.7167°N, 10.2833°E)
Time: 00:06:11
(UTC+00:00)

ISS - Pass Details

Date: 20 September 2021
Orbit: 417 x 423 km, 51.6° (Epoch: 19 October)

Event Time Altitude Azimuth Distance (km) Brightness Sun altitude
Rises 20:24:40 0° 268° (W) 2,365 0.7 -26.8°
Reaches altitude 10° 20:26:46 10° 268° (W) 1,503 -0.4 -27.1°
Enters shadow 20:27:32 16° 268° (W) 1,195 -1.0 -27.1°
